Temp
6 6 6 5 5 5 5 5 5 5 5 5 5 5 5 5 5 5 5 5 5 5 5 5 5 5 5 5 5 4 4 4 4 4 3 3 3 3 3 2 2 2 2
6 6 6 6 6 6 6 5 5 5 5 4 4 4 4 4 4 4 5 5 5 5 5 5 5 4 5 5 5 4 4 4 3 3 3 3 3 3 2 2 2 2 2
6 6 6 6 6 6 6 6 6 5 5 5 4 4 4 4 4 4 5 5 5 5 4 4 4 4 4 4 4 4 3 3 3 3 2 2 2 2 2 2 2 1 1
5 5 5 5 5 6 6 5 5 5 5 4 4 5 5 4 4 4 4 4 3 3 4 4 4 4 4 4 4 3 3 3 3 2 2 1 1 1 1 1 1 1 1
4 4 4 4 4 5 5 5 5 5 5 5 4 4 4 4 4 4 4 3 3 3 3 4 4 4 4 4 3 3 3 3 2 2 2 1 1 1 1 1 1 1 1
3 3 4 4 4 4 4 4 5 5 4 4 4 4 3 3 3 3 3 3 3 3 3 3 3 3 3 3 3 3 3 2 2 2 2 1 1 1 1 1 1 0 0
3 3 3 3 3 3 3 3 3 4 4 4 4 3 2 2 2 2 2 2 2 2 2 3 3 3 3 3 2 2 3 3 2 2 2 1 1 1 1 1 1 -0 0
3 3 3 3 3 3 3 3 3 3 3 3 3 3 2 1 1 1 1 2 2 2 2 2 2 2 2 3 2 2 2 2 2 2 2 1 1 0 0 1 0 0 0
3 3 3 3 3 3 3 3 3 3 2 2 2 2 2 1 1 1 1 1 1 2 2 1 2 2 2 2 2 2 2 1 1 1 1 1 1 1 1 1 1 -0 -0
3 2 2 3 4 4 4 4 3 2 1 1 1 1 1 1 0 0 0 0 1 1 1 2 2 2 2 2 2 2 2 1 0 1 1 1 0 0 1 1 0 -0 -0
2 3 2 3 3 4 4 3 3 3 2 1 -0 0 -0 -0 -0 -0 -0 0 0 1 1 1 2 2 1 1 2 2 1 1 1 1 1 0 0 1 0 0 -0 -0 -1
2 3 3 3 3 3 2 2 2 2 0 -0 -1 -1 -1 -1 -1 -1 -0 -0 0 0 1 1 1 1 1 1 1 1 1 1 1 1 1 0 0 -0 0 -0 -0 -1 -1
-1 1 1 1 2 2 1 2 1 1 -1 -2 -2 -2 -3 -2 -2 -2 -1 -1 -0 -0 0 1 0 1 1 1 1 1 0 1 1 -0 0 0 -0 -1 -1 -2 -2 -2 -3
-2 -1 -1 1 2 1 1 0 0 -1 -2 -2 -3 -3 -2 -3 -2 -3 -2 -1 -1 -0 -0 -0 -0 0 1 1 1 1 0 0 0 1 -0 -1 -1 -1 -2 -3 -3 -4 -3
-3 -2 1 1 1 1 1 -0 -1 -2 -2 -2 -2 -2 -1 -1 -1 -2 -1 -1 -1 -1 -0 -0 -0 0 0 -0 0 0 -0 -0 -0 -1 -1 -1 -2 -2 -3 -4 -4 -4 -3
-3 -2 1 2 1 0 -1 -2 -3 -2 -2 -1 -1 -1 -1 -2 -2 -2 -2 -1 -1 -1 -1 -1 -1 -1 -1 -1 -0 -0 -1 -1 -1 -2 -3 -3 -3 -4 -4 -4 -4 -3 -4
-1 -2 1 1 0 -1 -2 -3 -3 -4 -4 -3 -4 -3 -2 -2 -2 -2 -2 -2 -2 -2 -3 -2 -1 -1 -1 -1 -1 -1 -1 -2 -2 -3 -3 -4 -4 -4 -4 -3 -3 -4 -4
-1 -0 1 -0 -1 -2 -2 -3 -3 -4 -4 -3 -3 -2 -3 -3 -2 -2 -3 -2 -3 -2 -2 -2 -2 -2 -2 -2 -2 -2 -3 -3 -3 -4 -4 -3 -4 -4 -4 -4 -4 -5 -5
-0 0 -1 -2 -2 -3 -4 -3 -3 -3 -2 -3 -4 -3 -3 -3 -2 -3 -3 -3 -3 -3 -3 -3 -3 -3 -3 -3 -3 -4 -4 -4 -4 -4 -4 -4 -4 -4 -4 -4 -5 -5 -6
-0 -0 -2 -3 -3 -3 -4 -3 -3 -3 -3 -4 -3 -3 -3 -3 -3 -3 -3 -3 -4 -4 -4 -4 -4 -4 -4 -4 -4 -4 -3 -4 -4 -4 -4 -4 -4 -4 -5 -5 -6 -6 -7
-0 -0 -2 -3 -3 -3 -2 -2 -3 -3 -2 -3 -3 -3 -3 -4 -4 -4 -4 -4 -4 -5 -5 -5 -5 -5 -4 -4 -4 -4 -4 -4 -4 -4 -4 -4 -5 -5 -6 -6 -7 -8 -9
-0 -0 -0 -2 -3 -3 -2 -2 -2 -3 -3 -3 -3 -4 -4 -4 -4 -4 -4 -4 -4 -4 -4 -4 -4 -4 -4 -4 -4 -4 -4 -4 -4 -4 -5 -5 -6 -7 -8 -9 -9 -9 -10
-1 -1 -1 -1 -2 -2 -2 -2 -2 -2 -3 -3 -3 -3 -3 -4 -4 -4 -4 -4 -4 -4 -4 -4 -4 -4 -4 -4 -3 -3 -4 -4 -5 -5 -6 -6 -7 -8 -9 -10 -10 -10 -11
-2 -1 -1 -2 -2 -2 -2 -3 -2 -2 -3 -3 -3 -3 -3 -4 -4 -4 -4 -4 -4 -4 -4 -4 -4 -4 -4 -4 -4 -4 -5 -5 -6 -7 -8 -8 -9 -10 -10 -10 -10 -11 -11
-2 -3 -2 -2 -1 -2 -2 -3 -3 -3 -3 -3 -3 -4 -4 -4 -4 -4 -4 -4 -4 -4 -4 -4 -4 -4 -4 -4 -4 -5 -6 -6 -7 -8 -9 -9 -9 -9 -10 -10 -11 -11 -11
-2 -3 -3 -2 -2 -2 -3 -3 -3 -3 -3 -3 -3 -4 -4 -4 -4 -4 -4 -4 -4 -4 -4 -4 -5 -5 -5 -4 -5 -6 -6 -7 -8 -8 -8 -8 -9 -9 -10 -10 -10 -10 -10
Height
3109 3108 3109 3111 3111 3113 3115 3117 3118 3120 3122 3123 3125 3128 3130 3134 3135 3138 3141 3142 3143 3144 3145 3146 3146 3147 3148 3149 3151 3151 3151 3152 3151 3151 3152 3152 3151 3150 3150 3149 3149 3148 3147
3100 3100 3101 3101 3102 3104 3105 3107 3110 3112 3113 3114 3116 3118 3121 3123 3127 3128 3131 3134 3136 3137 3138 3139 3139 3140 3141 3142 3144 3145 3146 3145 3145 3145 3145 3146 3146 3145 3145 3144 3143 3142 3142
3094 3094 3094 3094 3095 3097 3097 3098 3099 3101 3104 3105 3107 3107 3109 3111 3115 3117 3122 3126 3128 3129 3130 3131 3133 3133 3133 3135 3136 3137 3138 3139 3138 3138 3138 3138 3139 3140 3139 3138 3137 3137 3136
3087 3088 3089 3088 3088 3089 3090 3091 3092 3093 3094 3096 3096 3098 3099 3101 3105 3109 3112 3115 3116 3118 3120 3122 3123 3125 3125 3126 3128 3129 3130 3131 3130 3130 3130 3130 3130 3131 3131 3131 3131 3130 3129
3084 3084 3084 3084 3084 3083 3083 3083 3084 3084 3085 3085 3085 3088 3089 3091 3093 3095 3098 3101 3104 3107 3109 3111 3113 3115 3116 3119 3120 3121 3121 3123 3122 3122 3123 3122 3122 3122 3122 3122 3122 3122 3120
3080 3080 3080 3080 3081 3080 3079 3079 3078 3077 3077 3076 3077 3077 3079 3082 3083 3085 3086 3088 3091 3094 3096 3099 3101 3104 3106 3108 3110 3112 3112 3114 3114 3113 3115 3114 3115 3115 3114 3112 3112 3112 3111
3077 3077 3076 3076 3076 3074 3073 3073 3073 3072 3071 3070 3069 3068 3069 3071 3071 3074 3075 3076 3079 3081 3085 3087 3089 3092 3096 3098 3100 3101 3102 3103 3104 3105 3104 3104 3106 3107 3106 3104 3104 3101 3101
3072 3071 3070 3069 3068 3066 3065 3064 3064 3065 3063 3062 3061 3060 3060 3060 3061 3064 3065 3066 3067 3070 3074 3076 3078 3082 3084 3086 3089 3090 3092 3093 3093 3094 3094 3095 3096 3096 3096 3096 3094 3091 3090
3066 3064 3062 3059 3057 3056 3056 3055 3054 3054 3055 3054 3054 3053 3053 3052 3052 3053 3054 3056 3058 3060 3061 3064 3067 3069 3072 3076 3079 3080 3081 3083 3084 3086 3084 3086 3087 3086 3086 3085 3083 3082 3080
3060 3057 3054 3050 3047 3045 3044 3044 3042 3043 3044 3044 3043 3043 3043 3042 3043 3044 3045 3046 3048 3049 3050 3052 3054 3057 3061 3065 3067 3069 3071 3069 3066 3076 3074 3075 3077 3077 3075 3074 3073 3071 3068
3051 3049 3046 3041 3039 3037 3035 3034 3033 3032 3031 3032 3032 3032 3032 3033 3034 3034 3036 3037 3038 3039 3040 3042 3043 3045 3048 3052 3055 3058 3060 3062 3064 3062 3064 3066 3066 3066 3065 3063 3059 3058 3058
3045 3043 3039 3036 3032 3029 3027 3026 3025 3024 3023 3023 3022 3022 3023 3023 3023 3024 3026 3026 3027 3028 3029 3030 3033 3035 3037 3041 3045 3048 3051 3054 3055 3055 3055 3056 3056 3054 3053 3049 3049 3046 3045
3040 3037 3033 3030 3027 3025 3025 3022 3020 3018 3017 3016 3016 3016 3015 3014 3014 3014 3014 3015 3016 3017 3018 3020 3022 3026 3030 3033 3035 3039 3042 3044 3045 3047 3046 3047 3044 3042 3040 3037 3036 3035 3035
3035 3031 3027 3024 3023 3022 3019 3017 3016 3013 3012 3012 3009 3008 3005 3004 3004 3004 3006 3006 3007 3009 3010 3012 3014 3017 3020 3024 3027 3031 3034 3032 3033 3034 3036 3036 3034 3033 3030 3028 3030 3026 3024
3033 3028 3024 3021 3020 3016 3016 3015 3012 3010 3009 3006 3002 2999 2997 2997 2997 2999 3000 3000 3000 3001 3002 3004 3006 3009 3013 3016 3020 3023 3025 3024 3026 3026 3028 3025 3023 3023 3023 3022 3021 3017 3015
3029 3024 3020 3018 3016 3014 3013 3011 3008 3006 3003 3000 2996 2994 2993 2992 2993 2993 2994 2994 2994 2995 2996 2997 3001 3004 3008 3011 3014 3015 3017 3018 3020 3018 3012 3017 3015 3015 3014 3013 3011 3008 3005
3023 3019 3016 3015 3013 3012 3009 3007 3005 3002 3000 2998 2996 2994 2992 2991 2990 2990 2989 2990 2991 2992 2993 2996 2998 2999 3002 3005 3004 3006 3007 3010 3010 3009 3010 3010 3009 3008 3006 3005 3001 2999 2995
3020 3016 3013 3012 3010 3008 3006 3004 3002 2999 2998 2997 2995 2993 2989 2988 2988 2986 2985 2987 2989 2990 2991 2992 2992 2995 2994 2999 3001 3002 3001 3003 3004 3005 3006 3004 3003 3001 2998 2995 2992 2989 2984
3018 3014 3012 3009 3008 3007 3005 3002 3000 2997 2995 2994 2993 2991 2988 2987 2987 2986 2984 2984 2985 2986 2988 2990 2991 2993 2995 2997 2998 3000 3001 3002 3001 3001 3000 2998 2994 2991 2988 2984 2981 2978 2973
3017 3012 3009 3008 3007 3006 3003 3000 2998 2996 2995 2993 2992 2991 2989 2988 2987 2987 2987 2985 2984 2985 2987 2989 2992 2994 2995 2998 2999 2999 2999 2997 2996 2995 2993 2990 2987 2983 2978 2972 2970 2966 2962
3018 3014 3009 3008 3006 3005 3002 2998 2995 2994 2993 2993 2992 2991 2990 2990 2990 2990 2990 2989 2990 2991 2992 2993 2994 2995 2995 2995 2995 2996 2996 2994 2992 2989 2985 2981 2977 2973 2968 2963 2958 2953 2949
3018 3015 3010 3006 3006 3005 3003 3001 2998 2995 2995 2995 2995 2995 2994 2995 2994 2995 2995 2995 2995 2995 2995 2995 2995 2995 2995 2996 2995 2993 2991 2988 2985 2980 2976 2971 2966 2961 2955 2950 2946 2942 2938
3018 3016 3012 3010 3008 3007 3006 3004 3003 3001 3000 3000 3000 2999 2999 2999 2999 2998 2998 2998 2998 2997 2996 2996 2995 2994 2993 2991 2989 2987 2984 2979 2975 2970 2964 2958 2953 2949 2945 2941 2938 2935 2933
3017 3016 3013 3012 3011 3009 3008 3007 3005 3004 3003 3003 3002 3002 3001 3001 3000 3000 2999 2999 2998 2997 2996 2995 2994 2992 2990 2987 2984 2980 2975 2969 2965 2959 2954 2950 2946 2943 2939 2935 2933 2931 2930
3016 3014 3013 3011 3010 3009 3008 3008 3007 3006 3005 3004 3004 3004 3003 3003 3002 3002 3000 2999 2998 2997 2995 2993 2991 2988 2985 2981 2976 2971 2966 2961 2955 2951 2946 2942 2939 2936 2935 2933 2931 2930 2930
3014 3013 3012 3010 3009 3009 3009 3008 3008 3007 3006 3005 3005 3006 3005 3004 3003 3002 3001 2999 2998 2996 2994 2991 2988 2985 2980 2974 2968 2963 2956 2951 2947 2943 2941 2939 2937 2936 2934 2932 2930 2929 2928
Wind_Speed
25 30 37 44 49 50 48 46 46 44 43 43 42 39 36 33 34 31 30 30 31 31 31 30 28 28 26 26 28 27 27 25 24 24 23 21 21 19 19 19 19 20 20
25 29 34 38 42 46 49 51 51 51 51 49 46 45 42 42 38 36 35 34 34 34 34 33 32 29 28 29 29 28 28 27 27 26 24 24 22 20 20 21 20 21 21
24 27 30 34 36 38 40 42 44 44 47 49 53 53 51 50 47 46 42 40 38 36 35 33 34 33 33 33 32 31 29 29 28 27 28 27 25 22 22 23 23 23 23
16 18 18 20 20 25 33 36 37 37 38 38 43 47 52 56 56 55 50 44 43 41 39 38 38 36 36 37 36 35 33 30 32 31 30 35 33 28 29 26 27 30 29
14 13 13 14 17 19 22 26 29 33 38 44 44 41 40 41 42 45 51 52 48 47 48 43 41 40 41 40 39 37 37 35 36 34 36 38 33 33 28 33 31 32 33
10 12 14 15 17 20 22 24 26 27 28 30 36 43 45 44 43 40 40 42 46 50 54 54 51 47 41 40 39 38 38 37 37 35 32 32 33 31 32 34 34 34 37
11 15 19 20 21 22 23 23 24 27 30 29 27 29 31 36 42 42 42 42 41 38 40 45 46 46 45 41 40 39 39 38 39 36 36 34 35 35 35 34 39 38 39
18 20 22 23 24 27 28 30 30 29 31 33 32 31 30 28 26 26 29 34 39 42 45 36 38 41 46 47 43 41 39 38 41 41 40 40 38 40 38 42 41 41 44
23 25 27 30 32 34 35 36 37 37 35 36 36 36 37 34 33 32 31 31 30 30 36 40 44 40 39 42 43 43 43 40 39 39 38 40 41 42 44 44 47 44 45
22 22 24 26 29 31 34 36 41 44 42 41 40 39 39 39 37 35 33 30 29 30 33 36 40 44 42 40 41 44 47 42 36 38 38 40 43 44 43 51 46 48 47
25 24 27 26 25 26 25 24 24 29 33 40 47 43 41 40 39 37 35 33 34 35 34 37 38 40 44 44 43 43 43 41 39 39 39 41 42 45 47 46 48 47 50
26 25 24 22 23 22 21 22 22 22 22 26 34 44 45 43 41 37 37 35 38 38 37 37 42 40 42 42 42 42 43 41 43 40 41 42 44 44 48 43 46 48 46
25 21 21 21 18 18 19 19 22 23 19 20 22 32 40 46 39 38 40 35 36 35 34 34 39 40 40 41 42 40 40 40 40 40 38 44 50 44 54 42 42 41 42
26 23 22 20 16 13 16 17 17 15 17 21 21 24 24 28 30 24 25 26 26 27 28 32 34 34 37 39 40 37 35 36 41 32 40 43 47 48 42 37 37 33 34
24 23 18 16 16 12 15 15 16 19 22 27 28 27 25 24 21 19 21 22 23 25 27 28 30 31 32 33 31 31 34 31 35 40 41 42 42 35 31 31 31 32 35
22 22 14 14 13 11 12 15 19 22 21 20 20 18 15 13 16 16 17 18 20 20 19 17 19 23 26 27 28 29 32 30 35 32 29 28 28 24 25 28 31 32 33
16 16 11 12 11 11 12 17 18 16 10 12 14 13 13 12 12 14 15 15 14 11 14 13 19 27 26 30 30 29 31 27 25 20 21 21 21 24 27 31 34 33 35
19 15 12 10 10 12 13 11 14 13 8 10 10 12 11 10 9 11 12 11 12 12 11 20 18 22 9 14 16 16 13 15 16 17 19 23 24 26 29 33 34 34 38
23 16 11 11 9 10 10 10 13 12 8 10 10 13 7 4 6 3 8 11 11 13 15 16 12 10 9 13 11 8 7 10 13 16 20 23 25 28 33 36 36 37 39
23 21 12 9 7 10 8 10 9 12 8 6 5 4 8 5 5 4 3 8 6 6 7 9 8 6 5 1 4 6 9 12 15 19 23 26 29 33 37 40 41 41 41
20 20 14 7 8 7 11 9 8 3 5 6 5 2 5 8 12 11 13 15 12 13 11 9 7 5 3 4 6 8 12 15 19 24 28 32 35 38 40 42 42 40 37
17 17 15 7 1 5 9 11 15 17 15 16 17 16 17 16 15 14 12 11 9 9 8 7 5 3 2 5 8 12 16 20 24 29 33 36 39 40 40 40 38 35 31
13 14 13 12 9 6 7 11 13 15 15 14 13 13 13 12 11 11 10 9 8 7 6 5 6 8 10 13 17 20 24 28 32 36 39 41 41 38 34 31 28 22 14
10 11 9 6 4 3 6 7 7 9 10 11 10 9 9 10 9 8 7 6 7 7 8 8 10 12 15 19 23 28 32 35 36 37 36 32 27 23 20 16 12 9 9
9 10 10 5 3 1 2 4 5 5 6 7 7 7 7 6 5 5 5 6 7 8 10 12 15 19 22 26 30 33 35 34 32 26 21 19 16 13 11 9 9 9 9
10 10 12 5 3 2 2 2 2 2 3 4 4 3 3 4 4 5 6 7 9 11 14 17 20 24 28 31 34 34 32 27 21 17 13 10 8 7 7 8 8 9 11
Wind_Direction
242 244 243 242 246 248 251 253 259 264 265 265 266 265 265 261 255 254 253 254 256 254 249 249 252 250 248 248 250 254 259 265 270 269 273 274 270 270 271 274 280 283 279
241 243 244 246 248 249 252 255 255 257 260 262 265 268 268 267 262 254 251 255 255 256 255 249 248 251 248 245 247 256 261 261 263 264 265 268 270 272 272 272 277 282 279
244 245 251 255 254 255 255 257 258 257 257 258 258 259 261 262 262 261 265 267 264 260 259 259 253 250 250 244 245 253 259 260 260 260 260 266 270 271 271 271 274 281 278
237 238 253 259 258 252 252 256 257 258 256 255 256 258 261 262 264 264 263 260 262 263 261 258 257 254 251 250 250 249 256 258 255 255 256 262 257 264 272 274 275 276 276
243 258 265 264 259 255 251 250 253 255 253 253 256 256 258 261 264 262 257 253 253 255 260 258 256 256 257 254 252 250 250 253 257 260 266 274 273 261 262 272 280 274 275
246 256 264 268 269 268 267 262 257 255 254 252 252 251 253 257 260 262 262 259 258 258 257 256 258 260 256 251 250 250 251 252 255 257 258 260 266 266 278 268 270 276 278
269 268 267 268 270 268 267 266 266 265 262 259 252 248 250 253 255 256 257 258 257 255 254 254 255 256 254 250 247 248 251 252 253 255 256 258 263 268 272 269 270 278 273
297 292 285 279 272 265 260 257 258 258 262 261 251 247 245 244 248 250 251 255 258 257 254 251 254 254 250 250 247 248 250 249 250 251 255 261 263 268 267 270 273 277 272
296 296 291 283 277 272 268 266 265 263 261 261 262 258 252 248 248 250 251 253 255 255 250 249 251 251 251 252 249 250 249 247 249 253 254 259 264 270 269 270 268 271 279
297 299 302 291 282 280 277 272 268 265 264 264 262 258 255 252 252 253 253 254 256 254 246 247 246 247 248 249 250 252 253 257 250 253 258 262 265 270 271 276 268 278 281
304 305 308 302 300 294 293 289 280 272 266 259 257 256 255 254 254 255 256 260 263 258 254 243 241 242 243 245 248 249 256 262 258 255 259 263 269 266 276 269 279 276 283
301 304 304 305 307 306 309 306 303 297 288 272 261 256 257 259 257 258 261 268 272 260 252 246 241 242 241 242 246 249 252 254 256 259 260 268 270 262 264 268 272 277 275
319 318 312 314 312 310 299 302 301 291 290 288 280 269 263 261 263 267 272 266 256 257 253 246 242 243 241 242 246 247 250 252 252 262 266 269 271 262 270 264 270 275 279
329 325 320 318 312 302 310 312 303 298 296 290 279 278 283 269 268 265 270 262 257 257 256 252 247 243 235 240 245 251 254 253 253 256 261 264 271 274 271 280 280 279 279
329 320 319 314 298 308 301 304 309 304 300 298 295 290 281 268 265 262 264 257 253 253 256 255 246 237 238 240 241 246 254 256 263 265 270 260 266 273 276 274 277 281 283
317 317 320 310 295 304 304 307 302 301 304 304 311 308 294 264 250 253 255 260 260 259 253 236 233 229 231 235 235 241 254 255 264 266 257 266 273 270 275 281 286 284 285
323 315 323 307 299 304 308 308 312 321 340 324 324 313 303 270 251 254 255 254 253 242 238 233 230 225 220 243 231 238 242 251 261 272 275 269 274 284 293 283 282 286 293
352 338 328 316 310 307 306 323 326 323 263 299 316 326 302 254 301 249 245 265 241 258 266 240 253 232 259 268 260 261 256 256 263 268 274 286 287 279 283 284 289 294 294
355 346 326 319 316 317 323 336 338 324 306 301 301 356 15 17 24 3 288 239 248 215 204 223 235 208 218 258 251 253 264 274 287 293 282 283 287 288 288 289 292 292 292
355 354 334 324 332 331 340 335 331 320 347 350 340 7 356 15 46 16 71 42 74 114 109 102 109 110 109 134 286 307 300 288 289 288 287 289 291 290 291 293 295 296 298
356 354 7 329 339 348 341 359 11 329 325 350 12 20 55 73 88 85 93 93 91 94 95 99 91 73 35 353 323 299 287 294 296 297 298 297 295 294 295 297 301 304 305
358 357 9 356 329 10 37 62 75 78 86 86 83 92 91 89 89 89 87 88 88 88 84 74 59 30 338 304 302 306 307 304 299 296 296 297 300 304 308 310 311 310 308
356 356 11 35 64 63 77 82 87 89 90 89 88 87 87 86 84 84 81 79 75 69 64 45 19 356 339 327 319 314 310 306 305 305 306 308 310 311 311 311 313 314 314
331 346 355 6 36 65 82 79 71 88 89 89 86 82 82 80 77 73 69 59 47 36 23 5 347 336 328 324 321 317 314 312 312 310 309 310 312 317 321 325 329 328 320
312 320 329 316 317 15 83 73 65 66 82 81 79 79 80 77 69 55 44 32 20 8 355 345 337 333 329 325 321 318 316 316 314 313 316 325 331 339 347 345 339 329 315
285 288 305 305 323 28 80 88 86 65 62 82 85 77 63 45 31 24 15 6 356 349 342 338 334 330 327 324 324 324 321 321 319 322 330 338 343 347 344 339 331 319 309